Eastover, SC

1:16 PM EDT on June 28, 2017 (GMT -0400)
McEntire Angs

Weather History for KMMT - March, 2014

Change the Weather History Date:

Sunday, March 9, 2014

  Actual Average Record
Temperature  
Mean Temperature 55 °F -  
Max Temperature 73 °F 62 °F 85 °F (2009)
Min Temperature 37 °F 42 °F 25 °F (2008)
Degree Days  
Heating Degree Days 10    
Growing Degree Days 5 (Base 50)    
Moisture  
Dew Point 42 °F    
Average Humidity 69    
Maximum Humidity 100    
Minimum Humidity 31    
Precipitation  
Precipitation 0.00 in - - ()
Sea Level Pressure  
Sea Level Pressure 30.07 in    
Wind  
Wind Speed 4 mph (WNW)    
Max Wind Speed 10 mph    
Max Gust Speed -    
Visibility 10 miles    
Events      
Averages and records for this station are not official NWS values.
T = Trace of Precipitation, MM = Missing Value Source: NWS Daily Summary

Daily Weather History Graph

Daily Weather History Graph

Search for Another Location

Airport or City:

Trip Planner

Search our weather history database for the weather conditions in past years. The results will help you decide how hot, cold, wet, or windy it might be!

Date:

Astronomy

Mar. 09, 2014 Rise Set
Actual Time 7:41 AM EDT 7:26 PM EDT
Civil Twilight 7:16 AM EDT 7:51 PM EDT
Nautical Twilight 6:47 AM EDT 8:20 PM EDT
Astronomical Twilight 6:18 AM EDT 8:49 PM EDT
Moon 1:29 PM EDT (3/9) 3:54 AM EDT (3/9)
Length of Visible Light 12h 34m
Length of Day
11h 44m
First Quarter, 61% of the Moon is Illuminated
Mar 9
First Quarter
Mar 16
Full
Mar 23
Last Quarter
Mar 30
New
Apr 7
First Quarter

Hourly Weather History & Observations

Time (EDT) Temp. Windchill Dew Point Humidity Pressure Visibility Wind Dir Wind Speed Gust Speed Precip Events Conditions
12:58 AM 48.6 °F - 41.7 °F 77% 30.07 in 10.0 mi WSW 4.6 mph - N/A   Clear
1:58 AM 45.9 °F - 41.2 °F 84% 30.08 in 10.0 mi West 2.3 mph - N/A   Clear
3:58 AM 42.4 °F - 41.4 °F 96% 30.06 in 10.0 mi West 1.2 mph - N/A   Clear
4:58 AM 41.4 °F - 41.0 °F 99% 30.06 in 10.0 mi NW 1.2 mph - N/A   Clear
5:58 AM 40.3 °F 38.2 °F 40.1 °F 99% 30.06 in 10.0 mi NNW 3.5 mph - N/A   Clear
6:58 AM 42.1 °F - 41.7 °F 99% 30.08 in 9.0 mi West 2.3 mph - N/A   Clear
7:18 AM 37.4 °F 32.8 °F 37.4 °F 100% 30.08 in 2.5 mi NNW 5.8 mph - N/A   Clear
7:28 AM 39.2 °F 37.0 °F 37.4 °F 93% 30.08 in 5.0 mi NW 3.5 mph - N/A   Clear
7:58 AM 40.1 °F 38.0 °F 39.9 °F 99% 30.10 in 10.0 mi NW 3.5 mph - N/A   Partly Cloudy
8:58 AM 49.3 °F - 43.9 °F 82% 30.13 in 10.0 mi West 6.9 mph - N/A   Mostly Cloudy
9:58 AM 55.2 °F - 43.7 °F 65% 30.13 in 10.0 mi West 4.6 mph - N/A   Scattered Clouds
10:58 AM 61.5 °F - 43.5 °F 52% 30.13 in 10.0 mi West 4.6 mph - N/A   Scattered Clouds
11:58 AM 66.0 °F - 43.0 °F 43% 30.12 in 10.0 mi WSW 5.8 mph - N/A   Partly Cloudy
12:58 PM 70.3 °F - 39.7 °F 33% 30.10 in 10.0 mi West 5.8 mph - N/A   Partly Cloudy
1:58 PM 71.2 °F - 40.5 °F 33% 30.09 in 10.0 mi WNW 10.4 mph - N/A   Partly Cloudy
2:58 PM 72.1 °F - 40.1 °F 31% 30.06 in 10.0 mi WNW 6.9 mph - N/A   Partly Cloudy
3:58 PM 73.2 °F - 40.5 °F 31% 30.04 in 10.0 mi Variable 4.6 mph - N/A   Partly Cloudy
4:58 PM 73.6 °F - 41.7 °F 32% 30.03 in 10.0 mi North 6.9 mph - N/A   Clear
5:58 PM 73.2 °F - 43.0 °F 34% 30.02 in 10.0 mi WNW 6.9 mph - N/A   Clear
6:58 PM 69.6 °F - 43.9 °F 39% 30.03 in 10.0 mi NNW 3.5 mph - N/A   Clear
7:58 PM 62.4 °F - 44.8 °F 52% 30.04 in 10.0 mi NE 2.3 mph - N/A   Clear
8:58 PM 56.1 °F - 48.6 °F 76% 30.04 in 10.0 mi Calm Calm - N/A   Clear
9:58 PM 52.9 °F - 46.6 °F 79% 30.04 in 10.0 mi Calm Calm - N/A   Clear
10:58 PM 50.7 °F - 46.2 °F 85% 30.05 in 10.0 mi North 2.3 mph - N/A   Clear
11:58 PM 50.4 °F - 44.6 °F 81% 30.04 in 10.0 mi SW 3.5 mph - N/A   Clear
12:58 AM 47.7 °F - 44.4 °F 89% 30.04 in 10.0 mi NW 1.2 mph - N/A   Clear